Location: Rowland
(34.5359°N, 79.2929°W)
Time: 19:22:55
(UTC+00:00)

Transit 4A - Pass Details

Date: 11 October 2022
Orbit: 871 x 972 km, 66.8° (Epoch: 01 December)

Event Time Altitude Azimuth Distance (km) Brightness Sun altitude
Rises 02:53:34 0° 259° (WSW) 3,592 11.4 -49.3°
Enters shadow 02:56:19 - 274° (W) 2,881 10.9 -49.7°
Reaches altitude 10° 02:57:35 10° 284° (WNW) 2,628 - -49.9°
Maximum altitude 03:00:34 14° 313° (NW) 2,347 - -50.4°
Drops below altitude 10° 03:03:32 10° 343° (NNW) 2,598 - -50.9°
Sets 03:07:30 0° 9° (N) 3,520 - -51.6°
